[[{"header":{"parameterUnit":"m.s-1","parameterCategory":1,"la1":30.2991,"la2":30.254,"lo1":-89.0895,"lo2":-89.0444,"dy":0.0017,"dx":0.0017,"nx":28,"ny":28,"refTime":"2024-07-27T09:00:00:Z","depth":0,"parameterNumber":2,"parameterNumberName":"U-component_of_WINDS"},"data":[0,0,0,0,0,0,0,0,0,0,0,0,0,0,0,0,0,0,0,0,0,0,0,0,0,0,0,0,0,0,0,0,0,0,0,0,0,0,0,0,0,0,0,0,0,0,0,0,0,0,0,0,0,0,0,0,0,0,0.5865,0.5866,0,0.5915,0.5916,0.5916,0.5913,0.5912,0.5912,0.5911,0.5962,0.5964,0.5966,0,0,0,0,0,0,0,0,0,0,0,0,0,0.5765,0.5767,0.5865,0.5866,0.5866,0.5915,0.5916,0.5916,0.5913,0.5912,0.5911,0.5911,0.5961,0.5964,0.5966,0,0,0,0,0,0,0,0,0,0,0,0,0,0.5811,0.5768,0.5865,0.5871,0.5872,0.5915,0.5916,0.5917,0.5913,0.5912,0.5911,0.591,0.596,0.5963,0.5966,0.6007,0,0,0.5976,0.5977,0,0,0,0,0,0,0,0,0.5809,0.5815,0.5869,0.587,0.5871,0.5907,0.5899,0.5947,0.5914,0.5898,0.5911,0.591,0.5944,0.5949,0.596,0.601,0.6012,0.5976,0.5978,0.5979,0.598,0,0,0,0,0,0,0,0.5806,0.5813,0.5885,0.587,0.5871,0.587,0.5876,0.5908,0.5926,0.5899,0.5899,0.5905,0.5945,0.5958,0.5962,0.6013,0.5976,0.5979,0.5981,0.5982,0.6097,0.6098,0,0,0,0,0,0,0.5801,0.581,0.5883,0.5886,0.5837,0.5873,0.5879,0.5897,0.5926,0.593,0.5906,0.5904,0.5953,0.5958,0.5963,0.6012,0.5979,0.5982,0.5984,0.6095,0.6097,0.6098,0,0,0,0,0,0,0.5799,0.5808,0.5881,0.5848,0.5858,0.5876,0.5896,0.5898,0.5911,0.5931,0.5934,0.5915,0.5952,0.5959,0.5996,0.6014,0.5983,0.5986,0.6094,0.6096,0.6097,0.6111,0,0,0,0,0,0,0.5796,0.5807,0.5823,0.5849,0.5859,0.5913,0.5897,0.59,0.5916,0.5915,0.5941,0.5944,0.5952,0.5992,0.5999,0.6018,0.5989,0.6092,0.6095,0.6097,0.6109,0.6113,0.6116,0,0,0,0,0,0.5793,0.5825,0.5824,0.5833,0.588,0.5914,0.592,0.5928,0.5918,0.5934,0.5947,0.5944,0.6011,0.5995,0.6004,0.6024,0.6091,0.6094,0.6097,0.6107,0.6112,0.6116,0,0,0,0,0,0,0.5801,0.5829,0.5828,0.5869,0.5889,0.5914,0.5934,0.5934,0.5957,0.5955,0.5964,0.597,0.6007,0.6019,0.6001,0.6064,0.605,0.6054,0.6055,0.606,0.6063,0.6059,0.5991,0,0,0,0,0,0.5808,0.5834,0.5856,0.5891,0.5901,0.5916,0.5931,0.5936,0.5957,0.5966,0.5981,0.6002,0.6028,0.6044,0.6069,0.6111,0.6116,0.6129,0.6132,0.6135,0.6139,0.6161,0.6166,0.6107,0.6107,0.6107,0,0,0.5822,0.584,0.5856,0.5893,0.5909,0.5936,0.5923,0.5952,0.5971,0.597,0.6006,0.6018,0.6041,0.6081,0.6099,0.6092,0.6157,0.6139,0.6141,0.6143,0.6164,0.617,0.6175,0.6109,0.6109,0.6108,0,0,0.5861,0.5878,0.5908,0.5924,0.5949,0.5958,0.5965,0.599,0.5998,0.6034,0.6033,0.6056,0.6101,0.6117,0.6131,0.6176,0.6174,0.6184,0.6203,0.6224,0.6229,0.6233,0.6248,0.6254,0.6187,0.6187,0.6188,0,0.5875,0.5915,0.5923,0.5952,0.5968,0.5968,0.5998,0.6013,0.6045,0.6055,0.6048,0.6103,0.6119,0.6161,0.6172,0.6184,0.6192,0.6181,0.6228,0.6232,0.6236,0.625,0.6256,0.6188,0.6188,0.6188,0.6188,0,0.5931,0.5958,0.598,0.601,0.6028,0.6058,0.607,0.6087,0.609,0.61,0.6136,0.6155,0.6184,0.6194,0.6197,0.6237,0.6232,0.6226,0.6211,0.6242,0.6256,0.6262,0.619,0.619,0.6189,0.6189,0,0,0.5976,0.601,0.6018,0.6031,0.6058,0.6079,0.6108,0.6136,0.6151,0.6172,0.6196,0.6234,0.6228,0.6244,0.6249,0.6268,0.63,0.6259,0.626,0.6265,0.6344,0.6348,0.6354,0.6299,0.63,0.6301,0.6342,0,0.6017,0.6069,0.6076,0.6121,0.6147,0.6147,0.6172,0.6191,0.6201,0.6224,0.6235,0.6261,0.6252,0.6261,0.628,0.6292,0.6316,0.629,0.6321,0.6322,0.6314,0.6362,0.6366,0.6404,0.6347,0.6348,0.6349,0,0.6072,0.6095,0.6142,0.6165,0.6176,0.6198,0.6224,0.6245,0.6267,0.6273,0.6291,0.6293,0.6322,0.6307,0.6347,0.6329,0.6342,0.635,0.6352,0.6355,0.6337,0.6365,0.6416,0.6421,0.6358,0.6357,0.6356,0,0.6099,0.6142,0.6175,0.6187,0.6215,0.623,0.6242,0.6263,0.6278,0.6301,0.6311,0.6336,0.635,0.637,0.6379,0.6367,0.6418,0.6404,0.6423,0.6423,0.6434,0.6433,0.6487,0.6444,0.6444,0.6444,0.6443,0,0.6143,0.6172,0.6188,0.6208,0.624,0.6249,0.628,0.6292,0.631,0.6333,0.6335,0.6356,0.6367,0.6389,0.6396,0.6428,0.6435,0.644,0.6441,0.6439,0.6439,0.6448,0.6445,0.6445,0.6445,0.6444,0.6444,0,0.6179,0.6191,0.6227,0.625,0.6257,0.6279,0.6299,0.6319,0.6329,0.6357,0.6364,0.638,0.6406,0.6417,0.645,0.6455,0.6491,0.6491,0.6484,0.6484,0.6503,0.6501,0.6564,0.6573,0.6525,0.6525,0.6525,0,0.6206,0.6228,0.6253,0.6269,0.6281,0.6306,0.6322,0.6331,0.6348,0.6373,0.639,0.6416,0.6438,0.6481,0.6495,0.652,0.652,0.654,0.6523,0.652,0.6519,0.6517,0.6519,0.6543,0.6543,0.6544,0.6544,0,0.6252,0.6257,0.628,0.6305,0.6324,0.6345,0.6364,0.6377,0.6389,0.6407,0.6434,0.6451,0.6484,0.6511,0.6536,0.6548,0.6548,0.6549,0.6555,0.6553,0.6547,0.655,0.6492,0.6548,0.6547,0.6547,0.6547,0.6547,0.6284,0.6303,0.6324,0.635,0.6365,0.6384,0.6403,0.6415,0.6438,0.6466,0.647,0.6499,0.6519,0.6553,0.6566,0.6589,0.6584,0.6592,0.6594,0.6596,0.6597,0.6544,0.6594,0.6594,0.6594,0.6593,0.6593,0,0.633,0.6343,0.6367,0.6394,0.6414,0.6412,0.6434,0.645,0.6476,0.6494,0.6516,0.6546,0.6572,0.6588,0.6613,0.6628,0.6628,0.6634,0.6633,0.6635,0.66,0.6592,0.6633,0.6633,0.6633,0.6633,0.6633,0.6633,0.6356,0.6388,0.6395,0.6435,0.6448,0.6476,0.6489,0.6505,0.652,0.6555,0.6575,0.6586,0.6603,0.663,0.6653,0.6657,0.6666,0.6672,0.6675,0.6642,0.6638,0.6634,0.6627,0.6674,0.6674,0.6708,0.6709,0.6709]},{"header":{"parameterUnit":"m.s-1","parameterCategory":1,"la1":30.2991,"la2":30.254,"lo1":-89.0895,"lo2":-89.0444,"dy":0.0017,"dx":0.0017,"nx":28,"ny":28,"refTime":"2024-07-27T09:00:00:Z","depth":0,"parameterNumber":3,"parameterNumberName":"V-component_of_WINDS"},"data":[0,0,0,0,0,0,0,0,0,0,0,0,0,0,0,0,0,0,0,0,0,0,0,0,0,0,0,0,0,0,0,0,0,0,0,0,0,0,0,0,0,0,0,0,0,0,0,0,0,0,0,0,0,0,0,0,0,0,4.3566,4.3567,0,4.3657,4.3658,4.3659,4.359,4.3587,4.3584,4.3581,4.3674,4.3679,4.3684,0,0,0,0,0,0,0,0,0,0,0,0,0,4.3331,4.3335,4.3566,4.3567,4.3568,4.3657,4.3658,4.3659,4.359,4.3587,4.3583,4.358,4.3672,4.3679,4.3685,0,0,0,0,0,0,0,0,0,0,0,0,0,4.3428,4.3337,4.3566,4.3544,4.3543,4.3656,4.3658,4.3659,4.3591,4.3586,4.3582,4.3578,4.367,4.3678,4.3686,4.3825,0,0,4.371,4.3713,0,0,0,0,0,0,0,0,4.3423,4.3437,4.3547,4.3546,4.3545,4.3607,4.3609,4.3715,4.3592,4.3573,4.3581,4.3576,4.3656,4.3664,4.3691,4.3829,4.3833,4.3711,4.3715,4.3719,4.3721,0,0,0,0,0,0,0,4.3416,4.3433,4.3602,4.3548,4.3547,4.353,4.3539,4.3629,4.3638,4.3574,4.357,4.3581,4.3654,4.3684,4.3693,4.3834,4.371,4.3717,4.3722,4.3725,4.4087,4.4091,0,0,0,0,0,0,4.3412,4.3428,4.3599,4.3605,4.3472,4.3538,4.3547,4.3592,4.3637,4.364,4.3585,4.3578,4.3673,4.3684,4.3696,4.3859,4.3719,4.3726,4.3731,4.4082,4.4088,4.4093,0,0,0,0,0,0,4.3407,4.3428,4.3595,4.3515,4.3535,4.3546,4.3597,4.3596,4.3625,4.3645,4.3646,4.3613,4.3669,4.3685,4.3792,4.3861,4.373,4.3737,4.4076,4.4084,4.409,4.4188,0,0,0,0,0,0,4.34,4.3426,4.348,4.3517,4.3539,4.3691,4.3601,4.3601,4.3639,4.3631,4.3672,4.3675,4.3667,4.3781,4.38,4.387,4.3743,4.407,4.4079,4.4088,4.4179,4.4198,4.4214,0,0,0,0,0,4.3392,4.3505,4.3483,4.3504,4.3607,4.3695,4.3708,4.3697,4.3645,4.3698,4.371,4.3674,4.3851,4.3792,4.3814,4.3887,4.4065,4.4077,4.4087,4.4171,4.4194,4.4214,0,0,0,0,0,0,4.3477,4.3509,4.3486,4.3613,4.3652,4.3683,4.3751,4.3722,4.3777,4.3766,4.375,4.376,4.3872,4.389,4.3825,4.4022,4.395,4.3965,4.4006,4.4028,4.4045,4.4039,4.375,0,0,0,0,0,4.351,4.358,4.3604,4.3714,4.3735,4.374,4.3778,4.3765,4.3805,4.3821,4.3841,4.3881,4.3944,4.3987,4.4048,4.4181,4.4188,4.4241,4.4259,4.4273,4.4287,4.4356,4.4379,4.4129,4.4129,4.4128,0,0,4.358,4.3606,4.3652,4.3732,4.376,4.3832,4.3754,4.3834,4.3886,4.3833,4.3935,4.3951,4.3994,4.4114,4.4168,4.4132,4.4357,4.4287,4.4299,4.4304,4.4369,4.4393,4.4414,4.4136,4.4135,4.4134,0,0,4.3744,4.3771,4.3865,4.3894,4.3938,4.394,4.3962,4.3998,4.4006,4.4108,4.4069,4.413,4.4242,4.4273,4.4304,4.4476,4.4443,4.4496,4.4588,4.4656,4.4675,4.4693,4.4752,4.4774,4.451,4.451,4.451,0,4.3825,4.3932,4.3917,4.3998,4.4034,4.3988,4.4081,4.4111,4.4172,4.4197,4.4157,4.4294,4.432,4.4445,4.4486,4.4513,4.4537,4.4491,4.4674,4.4691,4.4707,4.4764,4.4786,4.4516,4.4515,4.4515,4.4514,0,4.4028,4.4103,4.4173,4.4232,4.4275,4.4363,4.436,4.4405,4.4388,4.4394,4.4497,4.4526,4.459,4.4619,4.4604,4.4741,4.4718,4.4676,4.4603,4.4737,4.479,4.4812,4.4525,4.4522,4.4521,4.4519,0,0,4.4249,4.4297,4.4323,4.4348,4.4391,4.4448,4.4532,4.4594,4.4632,4.4676,4.4745,4.4839,4.4799,4.4834,4.4822,4.4881,4.5012,4.4831,4.4832,4.4863,4.5163,4.5194,4.5219,4.4991,4.4995,4.4998,4.5159,0,4.4414,4.456,4.4548,4.4686,4.4753,4.4709,4.4782,4.4816,4.4823,4.488,4.4887,4.4953,4.4897,4.4917,4.4974,4.4984,4.5072,4.4973,4.5054,4.5057,4.5044,4.5247,4.528,4.5431,4.518,4.5183,4.5186,0,4.4625,4.4674,4.4819,4.485,4.4877,4.4943,4.4997,4.5053,4.5089,4.509,4.5127,4.5104,4.5187,4.5113,4.5226,4.5158,4.519,4.52,4.5206,4.5212,4.5129,4.5258,4.5479,4.5501,4.5218,4.5216,4.5213,0,4.477,4.4872,4.4971,4.4994,4.5033,4.508,4.5098,4.513,4.5167,4.5214,4.5237,4.5294,4.5325,4.5369,4.5361,4.5308,4.5476,4.5401,4.5477,4.5478,4.5515,4.5513,4.5743,4.5537,4.5537,4.5537,4.5536,0,4.4954,4.5044,4.5036,4.5097,4.5196,4.518,4.5277,4.529,4.5318,4.538,4.5345,4.5404,4.539,4.5448,4.5442,4.5535,4.555,4.5552,4.5549,4.5555,4.5554,4.5575,4.5564,4.5543,4.5541,4.554,4.5539,0,4.5132,4.5131,4.5236,4.5263,4.5271,4.5343,4.5365,4.5422,4.5425,4.5503,4.552,4.5526,4.5591,4.5587,4.5662,4.5658,4.5773,4.5758,4.5761,4.5757,4.5833,4.5826,4.6084,4.6117,4.5891,4.5893,4.5895,0,4.525,4.5318,4.5351,4.539,4.541,4.5473,4.551,4.5496,4.5536,4.5581,4.5632,4.5694,4.5743,4.585,4.586,4.5916,4.5902,4.5989,4.5911,4.5913,4.5902,4.5898,4.5903,4.6004,4.6007,4.6009,4.6011,0,4.5458,4.5453,4.5508,4.5562,4.5606,4.5649,4.5687,4.572,4.571,4.5756,4.5822,4.586,4.5935,4.5997,4.605,4.6067,4.6037,4.6035,4.6055,4.6061,4.6059,4.606,4.5801,4.6029,4.6027,4.6026,4.6025,4.6024,4.5608,4.5665,4.5697,4.5758,4.5785,4.5821,4.5875,4.5884,4.5939,4.5998,4.5986,4.606,4.6092,4.616,4.6183,4.624,4.6209,4.6239,4.6246,4.6254,4.6261,4.605,4.6249,4.6249,4.6248,4.6248,4.6247,0,4.5813,4.583,4.5887,4.5941,4.5988,4.5955,4.5995,4.6037,4.6102,4.6134,4.6182,4.6257,4.6316,4.633,4.6386,4.6429,4.6416,4.6444,4.644,4.6444,4.6287,4.6263,4.6453,4.6453,4.6453,4.6453,4.6453,4.6453,4.5925,4.6019,4.6018,4.6124,4.6141,4.6212,4.6238,4.627,4.6295,4.638,4.6428,4.6437,4.6461,4.6518,4.657,4.6572,4.6594,4.6627,4.6624,4.6476,4.6456,4.6436,4.6414,4.6632,4.6633,4.6777,4.6778,4.6779]}]]